Regional Weather Roundup
Issued by NWS Newport/Morehead, NC

Current Version | Previous Version | Text Only | Print | Product List | Glossary Off
Versions: 1 2 3 4 5 6 7 8 9 10 11 12 13 14 15 16 17 18 19 20 21 22 23 24 25 26 27 28 29 30 31 32 33 34 35 36 37 38 39 40 41 42 43 44 45 46 47 48 49 50
000 ASUS42 KMHX 181922 RWRMHX WEATHER ROUNDUP FOR EASTERN NORTH CAROLINA NATIONAL WEATHER SERVICE NEWPORT/MOREHEAD CITY NC 300 PM EDT THU SEP 18 2014 NOTE: "FAIR" INDICATES FEW OR NO CLOUDS BELOW 12,000 FEET WITH NO SIGNIFICANT WEATHER AND/OR OBSTRUCTIONS TO VISIBILITY NCZ015>017-031-032-045>047-102-103-182000- NORTH COAST CITY SKY/WX TMP DP RH WIND PRES REMARKS EDENTON SUNNY 76 59 54 E8 30.00S ELIZABETH CITY SUNNY 76 54 46 NE10 30.01S KITTY HAWK CLEAR 74 54 49 NE9G16 29.99S MANTEO SUNNY 74 56 53 NE10G17 30.00S $$ NCZ045>047-081-094-103-104-182000- CENTRAL COAST CITY SKY/WX TMP DP RH WIND PRES REMARKS FRISCO SUNNY 75 58 55 NE10G18 29.98F SWANQUARTER N/A 77 N/A N/A N6G15 29.94S $$ NCZ095-097-098-100-101-182000- SOUTHERN COAST CITY SKY/WX TMP DP RH WIND PRES REMARKS BEAUFORT MOSUNNY 79 60 52 NE13G18 29.98S CEDAR ISLAND N/A 75 N/A N/A NE10G17 30.03S JACKSONVILLE PTSUNNY 80 61 52 E7G20 29.97F NEWPORT NOT AVBL PINEY ISLAND CLEAR 78 59 51 E12 29.99S WILMINGTON CLOUDY 78 66 66 NE12 29.97S $$ NCZ011>013-027>030-043-044-078>080-089-090>093-098-182000- COASTAL PLAIN CITY SKY/WX TMP DP RH WIND PRES REMARKS AHOSKIE SUNNY 77 58 52 N3 30.00F CLINTON SUNNY 80 63 56 CALM 29.98S ELIZABETHTOWN SUNNY 79 65 61 CALM 29.96F GOLDSBORO MOSUNNY 80 64 57 E6 29.96F GREENVILLE MOSUNNY 79 59 50 CALM 30.01F HAVELOCK MOSUNNY 79 60 52 E12 30.00S KENANSVILLE MOSUNNY 80 59 48 N3 29.98F KINSTON MOSUNNY 81 59 47 N7 29.99F NEW BERN MOSUNNY 80 60 50 VRB6 29.99F RICHLANDS MOSUNNY 81 61 50 NE9 29.97F ROANOKE RAPIDS NOT AVBL ROCKY MOUNT PTSUNNY 78 59 51 NE3 29.99F WASHINGTON SUNNY 78 58 50 N3 29.99F WHITEVILLE MOSUNNY 83 66 56 NE7 29.94F $$ AMZ130-135-150-152-154-156-158-170-250-252-270-ANZ085-086-088-633-658-670-182000- MARINE OBSERVATIONS STATION/POSITION TIME TEMP WIND PRES WAVE SWELL AIR SEA DIR/SP/G HT/PER HT/PER (UTC) (F) (DEG/KT/KT) (MB) (FT/S) (FT/S) CHESAPEAKE LIGHT 1900 70 60/ 9/ 10 1017.2 BUOY 44014 1900 72 77 30/ 12/ 16 1015.3 4/12 3/12 DUCK 1900 71 75 40/ 13/ 15 1015.4 2E DUCK 1900 N/A 4/12 2/12 OREGON INLET 1900 73 74 30/ 13/ 17 1015.5 BUOY 44095 1900 76 N/A 5/14 2/14 20E OREGON INLET NOT AVBL HATTERAS CG 1900 73 76 20/ 12/ 15 1015.8 DIAMOND BUOY 1900 74 360/ 16/ 21 1014.8 6/13 3/13 CAPE LOOKOUT 1900 74 50/ 16/ 18 1015.4 BEAUFORT LAB 1900 77 79 50/ 11/ 13 1014.8 30 SE NEW RIVER 1900 77 83 50/ 17/ 21 1014.9 5/11 3/11 5 SE WRIGHTSVILL 1900 75 81 80/ 16/ 17 N/A BUOY 41002 1827 79 83 30/ 6/ 8 1013.3 3/10 3/10 BUOY 41004 1900 80 84 30/ 6/ 8 1013.3 3/11 3/11 $$

USA.gov is the U.S. government's official web portal to all federal, state and local government web resources and services.